Regional Weather Roundup
Issued by NWS Newport/Morehead, NC

Current Version | Previous Version | Graphics & Text | Print | Product List | Glossary On
Versions: 1 2 3 4 5 6 7 8 9 10 11 12 13 14 15 16 17 18 19 20 21 22 23 24 25 26 27 28 29 30 31 32 33 34 35 36 37 38 39 40 41 42 43 44 45 46 47 48 49 50
000 ASUS42 KMHX 280825 RWRMHX WEATHER ROUNDUP FOR EASTERN NORTH CAROLINA NATIONAL WEATHER SERVICE NEWPORT/MOREHEAD CITY NC 400 AM EDT TUE MAR 28 2017 NOTE: "FAIR" INDICATES FEW OR NO CLOUDS BELOW 12,000 FEET WITH NO SIGNIFICANT WEATHER AND/OR OBSTRUCTIONS TO VISIBILITY NCZ015>017-031-032-045>047-102-103-280900- NORTH COAST CITY SKY/WX TMP DP RH WIND PRES REMARKS EDENTON CLEAR 59 55 85 CALM 29.98S ELIZABETH CITY CLEAR 59 54 83 S8 29.96F KITTY HAWK NOT AVBL MANTEO CLOUDY 58 56 92 SW3 29.98F $$ NCZ045>047-081-094-103-104-280900- CENTRAL COAST CITY SKY/WX TMP DP RH WIND PRES REMARKS FRISCO PTCLDY 67 58 72 SW9 29.99F HAZE $$ NCZ095-097-098-100-101-280900- SOUTHERN COAST CITY SKY/WX TMP DP RH WIND PRES REMARKS BEAUFORT CLOUDY 65 60 84 S8 29.97F CEDAR ISLAND NOT AVBL JACKSONVILLE CLOUDY 65 58 78 SW3 29.98S PINEY ISLAND CLOUDY N/A N/A N/A SE6 29.97F WILMINGTON CLOUDY 66 59 78 W6 29.98S $$ NCZ011>013-027>030-043-044-078>080-089-090>093-098-280900- COASTAL PLAIN CITY SKY/WX TMP DP RH WIND PRES REMARKS AHOSKIE N/A 60 55 83 CALM 29.95F CLINTON PTCLDY 62 59 89 CALM 29.98F ELIZABETHTOWN CLEAR 62 58 88 S3 29.98F GOLDSBORO CLOUDY 62 61 97 S5 29.95F GREENVILLE CLOUDY 61 57 88 S6 29.98F HAVELOCK CLOUDY 62 58 86 CALM 29.99F KENANSVILLE CLOUDY 61 57 88 CALM 29.98S KINSTON CLOUDY 63 57 81 CALM 29.97F NEW BERN CLOUDY 62 58 86 CALM 29.99S RICHLANDS CLOUDY 60 56 86 CALM 29.99F ROCKY MOUNT CLEAR 61 56 83 S7 29.95F WASHINGTON PTCLDY 60 56 85 CALM 29.97F WHITEVILLE PTCLDY 62 58 88 SW3 29.98F $$ AMZ130-135-150-152-154-156-158-170-250-252-270-ANZ085-086-088-633-658-670-280900- MARINE OBSERVATIONS STATION/POSITION TIME TEMP WIND PRES WAVE SWELL AIR SEA DIR/SP/G HT/PER HT/PER (UTC) (F) (DEG/KT/KT) (MB) (FT/S) (FT/S) CHESAPEAKE LIGHT NOT AVBL 64 E VA BEACH 0750 54 49 210/ 8/ 8 1014.9 4/ 9 3/ 9 DUCK 0800 62 49 200/ 8/ 10 1014.2 2 E DUCK 0730 50 N/A 3/ 9 2/11 OREGON INLET 0800 61 59 200/ 9/ 10 1014.9 13E OREGON INLT 0748 53 N/A 4/11 3/11 HATTERAS CG 0800 65 62 220/ 6/ 10 1015.2 DIAMOND BUOY 0750 71 74 220/ 17/ 19 1015.4 5/10 5/10 CAPE LOOKOUT 0800 66 210/ 8/ 9 1015.1 BEAUFORT LAB 0800 64 60 190/ 6/ 8 1014.0 30 SE NEW RVR IN 0708 66 210/ 8/ 10 1016.0 30 SE NEW RVR IN 0743 64 N/A 4/11 2/11 27 SE WRIGHTSVLE 0708 69 66 210/ 8/ 12 1015.2 5 SE WRIGHTSVLE 0708 64 60 190/ 12/ 16 1015.4 225 S CAPE HAT 0750 67 72 140/ 4/ 6 1016.7 6/10 5/10 41 SE CHARLESTON 0750 72 70 200/ 12/ 14 1015.7 5/10 5/10 $$

USA.gov is the U.S. government's official web portal to all federal, state and local government web resources and services.